User: anonymous   Login
Location: NJAA Observatory
(40.6819°N, 74.8979°W)
Time: 13:31:15
(UTC-05:00)
Language:

CENTAUR R/B - Orbit

View from above orbital plane
View from above orbital plane
View from above satellite
View from above satellite

Ground track
Ground track

The orbit data is extracted from the following two-line orbital elements,

1 26906U 01040B   14328.73064477 0.00000160  00000-0  22197-3 0    08
2 26906  63.4635 209.6551 0270000 344.8902  15.1098 13.43930801    05
Epoch (UTC): 24 November 2014 17:32:07
Eccentricity: 0.0270000
inclination: 63.4635°
perigee height: 893 km
apogee height: 1296 km
right ascension of ascending node: 209.6551°
argument of perigee: 344.8902°
revolutions per day: 13.43930801
mean anomaly at epoch: 15.1098°
orbit number at epoch: 0

The dashed part of the orbit path shows where the satellite is in the earth's shadow,  

DLR